Simultaneous Nadir Overpasses (SNOs) Predictions

Prediction of SNOs over PacNW region [( 10.00, 139.50) to ( 22.70, 165.60)] between AQUA and NPP Satellites:

Table of predicted SNOs over PacNW region for the next 30.0 days since TLE Epoch: 11/30/2018
Index Date (AQUA) Time (AQUA) AQUA Lat,Lon Date (NPP) Time (NPP) NPP Lat,Lon Distance(km) Time Diff (sec)
1 12/05/2018 15:09:49 22.62, 159.86 12/05/2018 15:11:29 23.22, 157.16 284.31 100
2 12/08/2018 03:31:39 22.68, 147.53 12/08/2018 03:28:09 24.08, 145.33 273.90 210
3 12/13/2018 15:59:14 22.61, 147.50 12/13/2018 16:02:12 23.26, 144.47 318.51 178
4 12/21/2018 15:09:45 22.59, 159.87 12/21/2018 15:11:27 23.17, 157.13 288.00 102
5 12/24/2018 03:31:34 22.70, 147.55 12/24/2018 03:28:04 23.99, 145.34 267.35 210




NCC Satellite Simultaneous Nadir Overpasses (SNOs) Prediction Service
